Content
SEND FEEDBACK

Daily
Averages
Monthly
Summary
United States of America

ROCK HILL, NEW YORK


Home > North America > United States > New York
Elevation: 1260 feet     Latitude: 41 35N     Longitude: 074 37W

WEATHER
 
SELECT A DAY
Number of Records: 449,070;   Date Range: 1/1/95 - 9/29/14
 
SHARE

PRINT THIS DATA

[ ← Previous Day ]
WEATHER ALMANAC - AUGUST 7, 2014
[ Next Day → ]
[ °C ]   °F
Weather ElementAverageHighLow
Temperature61.9 °F73.4 °F (12:55 pm)51.8 °F (4:35 am)
Dewpoint52.8 °F59 °F (3:15 am)48.2 °F (3:35 pm)
Humidity74.3 %100 % (12:15 am)41 % (3:35 pm)
Barometer30.01 in30.08 in (10:35 pm)29.98 in (1:35 am)
Wind Speed7.5 mph19.6 mph (11:15 am)
Wind Gust28.8 mph (3:55 pm)
Weather ElementAverage
Visibility9.9 mi
Wind DirectionWNW (286.4 °)

Weather ElementTotal
Precipitation---
Heating Degree Days2.4 (Base 65)
Growing Degree Days12.6 (Base 50)
Averaged from 72 records on August 7, 2014
WEATHER CONDITIONS BREAKOUT
WIND DIRECTION BREAKOUT
WEATHER BY HOUR - AUGUST 7, 2014
[ °C ]   °F
Local TimeTemperatureDewpointHumidityBarometerVisibilityWind DirectionWind SpeedGust SpeedPrecipitationEventsConditions
12:15 AM57.2 °F53.6 °F88 %29.98 in10.0 miNW (320°)5.8 mphClear
12:35 AM55.4 °F51.8 °F88 %29.98 in10.0 miNNW (340°)4.6 mphClear
12:55 AM55.4 °F51.8 °F88 %29.98 in10.0 miNNW (330°)4.6 mphClear
1:15 AM55.4 °F51.8 °F88 %29.98 in10.0 miNW (320°)5.8 mphClear
1:35 AM55.4 °F51.8 °F88 %29.98 in10.0 miNW (320°)5.8 mphClear
1:55 AM55.4 °F51.8 °F88 %29.98 in10.0 miNNW (340°)6.9 mphClear
2:15 AM55.4 °F51.8 °F88 %29.98 in10.0 miNW (310°)6.9 mphClear
2:35 AM55.4 °F51.8 °F88 %29.98 in10.0 miNW (320°)4.6 mphClear
2:55 AM55.4 °F51.8 °F88 %29.98 in10.0 miCalmClear
3:15 AM53.6 °F51.8 °F94 %29.98 in10.0 miWNW (290°)3.5 mphClear
3:35 AM53.6 °F51.8 °F94 %29.98 in10.0 miWNW (290°)5.8 mphClear
3:55 AM53.6 °F51.8 °F94 %29.98 in10.0 miWNW (300°)5.8 mphClear
4:15 AM53.6 °F50.0 °F88 %29.98 in10.0 miNW (310°)3.5 mphClear
4:35 AM51.8 °F51.8 °F100 %29.99 in10.0 miCalmClear
4:55 AM51.8 °F50.0 °F94 %29.98 in10.0 miCalmClear
5:15 AM51.8 °F50.0 °F94 %29.98 in10.0 miWest (270°)4.6 mphClear
5:35 AM51.8 °F50.0 °F94 %29.99 in10.0 miWest (280°)4.6 mphClear
5:55 AM51.8 °F50.0 °F94 %29.99 in10.0 miWest (280°)3.5 mphClear
6:15 AM51.8 °F50.0 °F94 %30.00 in10.0 miWest (270°)3.5 mphClear
6:35 AM51.8 °F50.0 °F94 %30.00 in10.0 miWest (270°)4.6 mphClear
6:55 AM51.8 °F50.0 °F94 %30.00 in10.0 miCalmClear
7:15 AM53.6 °F51.8 °F94 %30.00 in10.0 miCalmClear
7:35 AM53.6 °F51.8 °F94 %30.01 in10.0 miWNW (290°)4.6 mphClear
7:55 AM55.4 °F53.6 °F94 %30.01 in10.0 miWest (270°)3.5 mphClear
8:15 AM57.2 °F53.6 °F88 %30.02 in10.0 miWNW (290°)3.5 mphClear
8:35 AM60.8 °F55.4 °F82 %30.02 in10.0 miNW (320°)5.8 mphClear
8:55 AM62.6 °F55.4 °F77 %30.01 in10.0 miNW (320°)6.9 mphClear
9:15 AM62.6 °F57.2 °F82 %30.01 in10.0 miNW (310°)8.1 mphClear
9:35 AM64.4 °F57.2 °F77 %30.01 in10.0 miNW (320°)5.8 mphClear
9:55 AM66.2 °F57.2 °F73 %30.01 in10.0 miNNW (340°)9.2 mphClear
10:15 AM66.2 °F59.0 °F78 %30.02 in10.0 miWNW (300°)6.9 mphClear
10:35 AM66.2 °F59.0 °F78 %30.02 in10.0 miWNW (300°)4.6 mphScattered Clouds
10:55 AM69.8 °F59.0 °F68 %30.02 in10.0 miWest (280°)8.1 mph17.3 mphScattered Clouds
11:15 AM69.8 °F57.2 °F64 %30.02 in10.0 miNorth (350°)19.6 mph25.3 mphPartly Cloudy
11:35 AM69.8 °F55.4 °F60 %30.02 in10.0 miNW (320°)13.8 mph18.4 mphMostly Cloudy
11:55 AM69.8 °F55.4 °F60 %30.02 in10.0 miNNW (330°)9.2 mphMostly Cloudy
12:15 PM71.6 °F53.6 °F53 %30.02 in10.0 miNNW (330°)12.7 mph19.6 mphScattered Clouds
12:35 PM71.6 °F53.6 °F53 %30.02 in10.0 miWNW (290°)12.7 mphScattered Clouds
12:55 PM71.6 °F55.4 °F57 %30.01 in10.0 miNW (320°)9.2 mphPartly Cloudy
1:15 PM71.6 °F53.6 °F53 %30.01 in10.0 miNW (310°)8.1 mph17.3 mphPartly Cloudy
1:35 PM73.4 °F53.6 °F50 %30.00 in10.0 miNNW (330°)10.4 mph19.6 mphScattered Clouds
1:55 PM73.4 °F51.8 °F47 %30.00 in10.0 miWNW (300°)11.5 mph17.3 mphScattered Clouds
2:15 PM71.6 °F53.6 °F53 %30.00 in10.0 miWNW (290°)11.5 mph20.7 mphClear
2:35 PM73.4 °F55.4 °F53 %30.00 in10.0 miNW (310°)13.8 mphScattered Clouds
2:55 PM73.4 °F51.8 °F47 %29.99 in10.0 miWNW (290°)10.4 mph19.6 mphScattered Clouds
3:15 PM73.4 °F51.8 °F47 %29.99 in10.0 miNW (310°)18.4 mph24.2 mphPartly Cloudy
3:35 PM73.4 °F48.2 °F41 %29.99 in10.0 miNW (310°)13.8 mph21.9 mphPartly Cloudy
3:55 PM64.4 °F53.6 °F68 %30.01 in5.0 miNNW (340°)15.0 mph28.8 mphMostly Cloudy
4:15 PM66.2 °F55.4 °F68 %30.01 in10.0 miNNW (340°)9.2 mphMostly Cloudy
4:35 PM69.8 °F55.4 °F60 %30.00 in10.0 miNNW (330°)11.5 mph17.3 mphPartly Cloudy
4:55 PM69.8 °F53.6 °F56 %30.00 in10.0 miNorth (10°)9.2 mph20.7 mphClear
5:15 PM69.8 °F55.4 °F60 %30.01 in10.0 miNNW (330°)15.0 mph21.9 mphClear
5:35 PM68.0 °F53.6 °F60 %30.01 in10.0 miNW (320°)15.0 mphClear
5:55 PM68.0 °F51.8 °F56 %30.02 in10.0 miNW (320°)11.5 mphClear
6:15 PM68.0 °F51.8 °F56 %30.02 in10.0 miNNW (340°)12.7 mphClear
6:35 PM66.2 °F50.0 °F56 %30.03 in10.0 miNNW (340°)12.7 mph17.3 mphClear
6:55 PM66.2 °F50.0 °F56 %30.03 in10.0 miNorth (350°)12.7 mphClear
7:15 PM66.2 °F50.0 °F56 %30.03 in10.0 miNNW (330°)10.4 mphClear
7:35 PM64.4 °F50.0 °F59 %30.03 in10.0 miNNW (330°)6.9 mphClear
7:55 PM64.4 °F50.0 °F59 %30.04 in10.0 miNW (320°)4.6 mphClear
8:15 PM62.6 °F51.8 °F68 %30.05 in10.0 miWNW (300°)4.6 mphClear
8:35 PM62.6 °F51.8 °F68 %30.05 in10.0 miNW (310°)6.9 mphClear
8:55 PM60.8 °F51.8 °F72 %30.05 in10.0 miNW (310°)6.9 mphClear
9:15 PM60.8 °F51.8 °F72 %30.06 in10.0 miNW (310°)5.8 mphClear
9:35 PM60.8 °F51.8 °F72 %30.07 in10.0 miNW (310°)5.8 mphClear
9:55 PM59.0 °F51.8 °F77 %30.07 in10.0 miNW (320°)5.8 mphClear
10:15 PM57.2 °F51.8 °F82 %30.07 in10.0 miWNW (300°)4.6 mphClear
10:35 PM57.2 °F51.8 °F82 %30.08 in10.0 miNW (310°)4.6 mphClear
10:55 PM57.2 °F51.8 °F82 %30.08 in10.0 miNW (310°)6.9 mphClear
11:15 PM57.2 °F51.8 °F82 %30.08 in10.0 miNW (310°)4.6 mphClear
11:35 PM55.4 °F51.8 °F88 %30.08 in10.0 miNW (310°)8.1 mphClear
11:55 PM55.4 °F51.8 °F88 %30.08 in10.0 miNNW (330°)5.8 mphClear
Hourly data recorded from KMSV, located miles away from Rock Hill, New York







STORIES FROM OUR PARTNERS